Location: Mountain View
(37.3861°N, 122.0839°W)
Time: 22:28:41
(UTC-07:00)

Envisat - Visible Passes

Search period start: 18 August 2018 00:00
Search period end: 28 August 2018 00:00
Orbit: 764 x 766 km, 98.2° (Epoch: 18 August)

Date Brightness Start Highest point End Pass type
(mag) Time Alt. Az. Time Alt. Az. Time Alt. Az.
19 Aug 5.2 21:15:27 10° SSW 21:19:31 24° W 21:23:37 10° NW visible
20 Aug 3.7 20:37:39 10° S 20:42:37 56° W 20:47:37 10° NNW visible
21 Aug 5.8 21:42:58 10° WSW 21:45:19 13° W 21:47:40 10° WNW visible
22 Aug 4.8 21:03:50 10° SSW 21:08:17 31° W 21:12:46 10° NW visible
23 Aug 3.3 20:26:23 10° S 20:31:26 73° WSW 20:36:31 10° NNW visible
24 Aug 5.6 21:30:46 10° SW 21:34:02 17° W 21:37:19 10° NW visible
25 Aug 4.4 20:52:20 10° SSW 20:57:03 39° W 21:01:49 10° NNW visible
26 Aug 3.0 20:15:12 10° SSE 20:20:16 88° ENE 20:25:23 10° NNW visible
27 Aug 5.3 21:18:53 10° SW 21:22:46 22° W 21:26:40 10° NW visible
